DW7955 Weather Reports


time (UTC)temp
F
wind
direction
speed
knots
gust
knots
rain 1hr
in
rain 24hr
in
rain mn
in
humidity
%
barometer
mb
20260901000031 79 130 0.9 6.1 0.00 0.00 0.00 40 1006.1
20260831234522 79 178 1.7 5.2 0.00 0.00 0.00 40 1006.0
20260831233021 79 153 2.6 7.0 0.00 0.00 0.00 41 1006.0
20260831231519 80 164 4.3 9.6 0.00 0.00 0.00 40 1006.4
20260831230018 81 175 3.5 12.2 0.00 0.00 0.00 34 1006.5
20260831224514 83 161 5.2 10.4 0.00 0.00 0.00 31 1006.8
20260831223012 83 136 6.1 10.4 0.00 0.00 0.00 30 1007.1
20260831221511 84 122 4.3 7.8 0.00 0.00 0.00 28 1007.6
20260831220020 84 171 3.5 9.6 0.00 0.00 0.00 27 1007.7
20260831214509 84 78 2.6 6.1 0.00 0.00 0.00 27 1007.5
20260831213010 84 215 0.9 6.1 0.00 0.00 0.00 27 1007.6
20260831211507 84 261 0.0 3.5 0.00 0.00 0.00 26 1007.6
20260831210007 84 213 2.6 6.1 0.00 0.00 0.00 27 1007.7
20260831204507 84 281 2.6 5.2 0.00 0.00 0.00 28 1008.0
20260831203006 84 332 1.7 7.0 0.00 0.00 0.00 28 1008.1
20260831201505 84 299 5.2 10.4 0.00 0.00 0.00 27 1008.1
20260831200005 83 233 1.7 13.0 0.00 0.00 0.00 28 1008.1
20260831194507 84 308 6.1 13.0 0.00 0.00 0.00 27 1008.2
20260831193004 84 317 5.2 13.0 0.00 0.00 0.00 27 1008.2
20260831191504 84 280 5.2 13.9 0.00 0.00 0.00 27 1008.4
20260831190004 85 297 4.3 11.3 0.00 0.00 0.00 27 1008.4
20260831184503 84 291 6.1 12.2 0.00 0.00 0.00 29 1008.8
20260831183104 84 250 4.3 9.6 0.00 0.00 0.00 28 1009.0
20260831181602 83 261 4.3 9.6 0.00 0.00 0.00 30 1009.2
20260831180100 81 302 4.3 11.3 0.00 0.00 0.00 31 1009.6
20260831174555 81 307 2.6 9.6 0.00 0.00 0.00 31 1009.6
20260831173057 81 340 1.7 9.6 0.00 0.00 0.00 32 1009.7
20260831171551 81 321 3.5 8.7 0.00 0.00 0.00 32 1009.7
20260831170049 80 323 1.7 4.3 0.00 0.00 0.00 33 1009.7
20260831164545 79 300 1.7 7.0 0.00 0.00 0.00 35 1009.8
20260831163042 77 290 5.2 8.7 0.00 0.00 0.00 39 1009.8
20260831161541 74 250 0.0 5.2 0.00 0.00 0.00 46 1010.0
20260831160035 72 253 1.7 4.3 0.00 0.00 0.00 47 1010.2
20260831154532 71 253 1.7 4.3 0.00 0.00 0.00 45 1010.3
20260831153029 69 203 1.7 5.2 0.00 0.00 0.00 51 1010.4
20260831151530 68 190 0.9 3.5 0.00 0.00 0.00 53 1010.2
20260831150028 67 241 0.0 5.2 0.00 0.00 0.00 56 1010.1
20260831144527 66 356 1.7 5.2 0.00 0.00 0.00 56 1009.9
20260831143027 66 213 0.0 4.3 0.00 0.00 0.00 57 1010.4
20260831141526 65 261 0.9 3.5 0.00 0.00 0.00 58 1010.3
20260831140027 65 317 0.9 3.5 0.00 0.00 0.00 60 1010.1
20260831134523 64 12 0.0 1.7 0.00 0.00 0.00 60 1010.2
20260831133026 63 12 0.0 3.5 0.00 0.00 0.00 61 1010.2
20260831131518 63 7 1.7 4.3 0.00 0.00 0.00 61 1010.0
20260831130018 63 8 0.0 4.3 0.00 0.00 0.00 62 1009.6
20260831124519 63 324 1.7 4.3 0.00 0.00 0.00 63 1009.4
20260831123015 63 309 0.0 3.5 0.00 0.00 0.00 63 1009.3
20260831121515 63 298 0.0 1.7 0.00 0.00 0.00 64 1009.1
20260831120014 63 257 0.0 0.0 0.00 0.00 0.00 65 1009.0
20260831114514 63 180 0.0 0.0 0.00 0.00 0.00 65 1008.8
20260831113013 63 180 0.0 0.0 0.00 0.00 0.00 65 1008.7
20260831111511 63 180 0.0 0.0 0.00 0.00 0.00 66 1008.7
20260831110011 62 180 0.0 0.0 0.00 0.00 0.00 66 1008.4
20260831104517 63 180 0.0 0.0 0.00 0.00 0.00 66 1008.5
20260831103009 63 180 0.0 0.0 0.00 0.00 0.00 67 1008.7
20260831101513 63 180 0.0 0.0 0.00 0.00 0.00 67 1008.4
20260831100005 64 180 0.0 0.9 0.00 0.00 0.00 65 1008.5
20260831094504 64 228 0.9 3.5 0.00 0.00 0.00 64 1008.4
20260831093002 64 223 0.0 0.0 0.00 0.00 0.00 64 1008.0
20260831091505 64 223 0.0 0.0 0.00 0.00 0.00 64 1008.1
20260831090101 65 223 0.0 0.9 0.00 0.00 0.00 63 1007.9
20260831084605 65 295 0.9 4.3 0.00 0.00 0.00 63 1007.8
20260831083100 66 298 0.0 3.5 0.00 0.00 0.00 61 1007.7
20260831081602 66 298 0.0 0.0 0.00 0.00 0.00 60 1007.8
20260831080125 67 298 0.0 4.3 0.00 0.00 0.00 60 1007.8
20260831074551 67 315 1.7 6.1 0.00 0.00 0.00 60 1008.2
20260831073110 67 303 4.3 6.1 0.00 0.00 0.00 59 1008.7
20260831071551 68 257 0.9 5.2 0.00 0.00 0.00 59 1009.2
20260831070041 68 324 0.0 4.3 0.00 0.00 0.00 58 1009.6
20260831064542 68 223 0.9 7.0 0.00 0.00 0.00 56 1010.0
20260831063044 68 246 0.0 3.5 0.00 0.00 0.00 54 1009.7
20260831061536 69 13 0.0 3.5 0.00 0.00 0.00 53 1009.8
20260831060034 70 275 0.9 4.3 0.00 0.00 0.00 51 1009.7
20260831054532 70 305 0.0 4.3 0.00 0.00 0.00 49 1009.8
20260831053032 71 310 3.5 7.8 0.00 0.00 0.00 48 1009.7
20260831051536 71 277 5.2 8.7 0.00 0.00 0.00 47 1009.7
20260831050030 70 290 0.0 3.5 0.00 0.00 0.00 53 1009.7
20260831044530 69 236 0.0 0.0 0.00 0.00 0.00 54 1009.7
20260831043028 70 236 0.0 2.6 0.00 0.00 0.00 54 1009.6
20260831041527 70 228 0.0 0.0 0.00 0.00 0.00 52 1009.4
20260831040030 71 26 0.0 0.0 0.00 0.00 0.00 50 1009.4
20260831034528 72 26 0.0 2.6 0.00 0.00 0.00 49 1009.1
20260831033033 73 8 0.0 0.9 0.00 0.00 0.00 47 1008.9
20260831031520 74 130 2.6 4.3 0.00 0.00 0.00 46 1008.7
20260831030017 75 1 0.0 2.6 0.00 0.00 0.00 45 1008.3
20260831024514 75 356 2.6 5.2 0.00 0.00 0.00 45 1007.8
20260831023012 75 258 0.9 6.1 0.00 0.00 0.00 43 1007.5
20260831021514 76 40 7.0 10.4 0.00 0.00 0.00 42 1006.6
20260831020008 76 27 6.1 10.4 0.00 0.00 0.00 42 1006.1
20260831014511 76 20 7.0 11.3 0.00 0.00 0.00 42 1005.9
20260831013008 76 22 5.2 11.3 0.00 0.00 0.00 42 1005.8
20260831011515 77 14 6.1 13.0 0.00 0.00 0.00 42 1005.7
20260831010006 77 34 10.4 16.5 0.00 0.00 0.00 41 1005.5
20260831004506 77 35 11.3 17.4 0.00 0.00 0.00 41 1005.5
20260831003008 80 34 10.4 21.7 0.00 0.00 0.00 36 1005.6
20260831001504 82 303 2.6 6.1 0.00 0.00 0.00 34 1004.9